Location: Avon Lake
(41.5219°N, 93.5010°W)
Time: 07:15:22
(UTC+00:00)

BlueWalker 3 - Pass Details

Date: 08 December 2022
Orbit: 499 x 517 km, 53.2° (Epoch: 07 February)

Event Time Altitude Azimuth Distance (km) Brightness Sun altitude
Rises 01:40:21 0° 305° (NW) 2,620 6.3 -32.2°
Reaches altitude 10° 01:42:34 10° 302° (WNW) 1,727 5.2 -32.6°
Enters shadow 01:43:03 13° 301° (WNW) 1,538 4.9 -32.7°
